This is the latest recevied weather packets stored in our database for station/object IW2NBW-3. If no packets are shown the sender has not sent any weather packets the latest 10 day(s).
| Time | Temp. | Humidity | Pressure | Rain* | Wind** | Luminosity | Snow |
|---|---|---|---|---|---|---|---|
| 1778332923 | 23.89° C | 52% | 1016.6 hPa | 0 mm | - | - | - |
| 1778332863 | 23.89° C | 52% | 1016.6 hPa | 0 mm | - | - | - |
| 1778332803 | 23.89° C | 51% | 1016.6 hPa | 0 mm | - | - | - |
| 1778332743 | 23.89° C | 54% | 1016.6 hPa | 0 mm | - | - | - |
| 1778332683 | 23.89° C | 52% | 1016.7 hPa | 0 mm | - | - | - |
| 1778332624 | 23.89° C | 53% | 1016.7 hPa | 0 mm | - | - | - |
| 1778332564 | 23.89° C | 53% | 1016.7 hPa | 0 mm | - | - | - |
| 1778332504 | 24.44° C | 53% | 1016.7 hPa | 0 mm | - | - | - |
| 1778332444 | 24.44° C | 54% | 1016.7 hPa | 0 mm | - | - | - |
| 1778332384 | 24.44° C | 53% | 1016.7 hPa | 0 mm | - | - | - |
| 1778332324 | 24.44° C | 53% | 1016.7 hPa | 0 mm | - | - | - |
| 1778332264 | 24.44° C | 52% | 1016.8 hPa | 0 mm | - | - | - |
| 1778332204 | 24.44° C | 52% | 1016.7 hPa | 0 mm | - | - | - |
| 1778332144 | 25° C | 52% | 1016.7 hPa | 0 mm | - | - | - |
| 1778332084 | 25° C | 52% | 1016.9 hPa | 0 mm | - | - | - |
| 1778332024 | 25° C | 52% | 1016.9 hPa | 0 mm | - | - | - |
| 1778331964 | 25° C | 54% | 1016.9 hPa | 0 mm | - | - | - |
| 1778331904 | 25° C | 53% | 1016.8 hPa | 0 mm | - | - | - |
| 1778331844 | 24.44° C | 53% | 1016.8 hPa | 0 mm | - | - | - |
| 1778331784 | 24.44° C | 54% | 1016.9 hPa | 0 mm | - | - | - |
| 1778331724 | 24.44° C | 54% | 1016.9 hPa | 0 mm | - | - | - |
| 1778331664 | 24.44° C | 55% | 1016.9 hPa | 0 mm | - | - | - |
| 1778331604 | 24.44° C | 55% | 1016.9 hPa | 0 mm | - | - | - |
| 1778331544 | 24.44° C | 54% | 1016.9 hPa | 0 mm | - | - | - |
| 1778331484 | 24.44° C | 55% | 1016.9 hPa | 0 mm | - | - | - |
* Rain latest hour (hover to see other rain measurements)
** Current wind speed in m/s (hover to see current wind gust speed)